Regional Weather Roundup
Issued by NWS

Home | Current Version | Previous Version | Graphics & Text | Print | Product List | Glossary Off
Versions: 1 2 3 4 5 6 7 8 9 10 11 12 13 14 15 16 17 18 19 20 21 22 23 24 25 26 27 28 29 30 31 32 33 34 35 36 37 38 39 40 41 42 43 44 45 46 47 48 49 50

781
ASUS43 KMKX 211621
RWRWI

WISCONSIN REGIONAL WEATHER ROUNDUP
NATIONAL WEATHER SERVICE MILWAUKEE/SULLIVAN WI
1100 AM CDT SAT OCT 21 2017

NOTE: "FAIR" INDICATES FEW OR NO CLOUDS BELOW 12,000 FEET WITH NO
SIGNIFICANT WEATHER AND/OR OBSTRUCTIONS TO VISIBILITY.

WIZ001-002-006>008-014>016-023>028-211700-
NORTHWEST WISCONSIN

CITY           SKY/WX    TMP DP  RH WIND       PRES   REMARKS
SUPERIOR ARPT  LGT RAIN  59  57  95 S9G20     29.70F
ASHLAND        CLOUDY    65  55  70 S20G28    29.74S
HAYWARD        LGT RAIN  61  55  81 S16       29.74F
SIREN          CLOUDY    60  57  88 S12G20    29.71S
CUMBERLAND     LGT RAIN  57  55  94 S17G26    29.74S
RICE LAKE      DRIZZLE   59  56  91 SE21G29   29.76F
CHETEK         DRIZZLE   59  57  94 SE12G23   29.78S
LADYSMITH      LGT RAIN  59  55  85 SE10      29.83S
EAU CLAIRE     LGT RAIN  60  57  89 S10       29.79S
MENOMONIE      DRIZZLE   59  59 100 SE10      29.79R
NEW RICHMOND   RAIN      59  58  94 S17G29    29.72S
OSCEOLA        CLOUDY    61  61 100 SE12      29.74S
$$

WIZ003>005-009-010-017-018-211700-
NORTH CENTRAL WISCONSIN

CITY           SKY/WX    TMP DP  RH WIND       PRES   REMARKS
MANITOWISH WTR CLOUDY    60  53  78 S13       29.86R
ARBOR VITAE    CLOUDY    62  53  72 S15       29.88R
WOODRUFF       CLOUDY    62  53  72 S15       29.88R
RHINELANDER    LGT RAIN  60  54  80 SW14      29.91R
EAGLE RIVER    NOT AVBL
LAND O LAKES   MOSUNNY   64  49  59 S14G21    29.89R
PHILLIPS       PTSUNNY   59  54  85 SE10      29.81F
TOMAHAWK       CLOUDY    60  54  81 SE3       29.89S
MEDFORD        CLOUDY    62  53  71 S12       29.85F
MERRILL        LGT RAIN  59  55  87 S3        29.92R
$$

WIZ029-030-035-036-043>047-211700-
CENTRAL WISCONSIN

CITY           SKY/WX    TMP DP  RH WIND       PRES   REMARKS
WAUSAU         LGT RAIN  62  55  77 S6        29.90R
MOSINEE        LGT RAIN  61  55  82 S7G18     29.92R
MARSHFIELD     PTSUNNY   63  53  70 S13       29.86F
STEVENS POINT  LGT RAIN  65  53  65 S13       29.92F
WAUPACA        SUNNY     69  52  53 S14       29.95R
WAUTOMA        SUNNY    N/A N/A N/A S13       29.94S
WISC RAPIDS    TSTM      63  54  72 S13       29.92S
CAMP DOUGLAS   PTSUNNY   66  54  63 S15G21    29.88F
$$

WIZ011>013-019>022-031-037>040-048>050-211700-
NORTHEAST WISCONSIN

CITY           SKY/WX    TMP DP  RH WIND       PRES   REMARKS
ANTIGO         PTSUNNY   62  52  68 S10       29.93R
SHAWANO        CLOUDY    69  52  54 S9G16     29.94R
OCONTO         MOSUNNY   66  51  58 S12G20    29.95R
STURGEON BAY   SUNNY     62  53  72 S20G25    29.97S
GREEN BAY      CLOUDY    67  53  61 S16       29.96S
MANITOWOC      MOSUNNY   60  52  74 S15       29.99F
APPLETON       PTSUNNY   66  46  48 S18G26    29.95R
CLINTONVILLE   MOSUNNY   68  52  56 S13G18    29.94S
OSHKOSH        SUNNY     67  52  58 S18G30    29.96R
$$

WIZ032>034-041-042-053>061-211700-
SOUTHWEST WISCONSIN

CITY           SKY/WX    TMP DP  RH WIND       PRES   REMARKS
LA CROSSE      PTSUNNY   67  56  67 S18G28    29.83F
SPARTA         DRIZZLE   63  56  80 S6        29.88R
VIROQUA        PTSUNNY   63  56  78 S15G22    29.88F
BOSCOBEL       CLOUDY    71  54  54 S10G22    29.90F
PRAIRIE DU CHI PTSUNNY   67  52  58 SE9       29.87F
PLATTEVILLE    SUNNY     70  56  59 S21       29.94S
$$

WIZ056-057-062-063-064-067-068-211700-
SOUTH CENTRAL WISCONSIN

CITY           SKY/WX    TMP DP  RH WIND       PRES   REMARKS
REEDSBURG      SUNNY     69  54  58 S13G22    29.92S
BARABOO/DELLS  SUNNY     68  52  56 S15       29.93S
LONE ROCK      SUNNY     71  57  61 S17       29.92F
MINERAL POINT  SUNNY     72  55  56 S14       29.94S
MADISON        MOSUNNY   66  53  63 S16       29.97R
MIDDLETON      SUNNY     69  53  58 S14G22    29.96F
WATERTOWN      MOSUNNY   66  54  64 S21       29.98F
MONROE         SUNNY     66  52  59 S22       29.97F
JANESVILLE     PTSUNNY   68  52  56 S12G17    29.99F
$$

WIZ051-052-058>065-066-070>072-211700-
SOUTHEAST WISCONSIN

CITY           SKY/WX    TMP DP  RH WIND       PRES   REMARKS
MILWAUKEE      CLOUDY    67  53  61 S14G23    30.02F
WAUKESHA       SUNNY     64  50  59 S10G20    30.02F
MILWAUKEE/TIMM SUNNY     64  46  52 S15       30.02F
RACINE         CLOUDY    68  53  58 S13       30.05S
BURLINGTON     MOSUNNY   67  54  62 S15       30.02F
KENOSHA        CLOUDY    69  53  56 S17       30.04S
FOND DU LAC    MOSUNNY   68  49  50 S16G29    29.96S
SHEBOYGAN      CLOUDY    62  54  74 S13       30.00S
WEST BEND      CLOUDY    64  48  55 S10G21    30.00S
JUNEAU         MOSUNNY   65  52  62 S13G21    30.00S
$$

LSZ147-162-211700-
LAKE SUPERIOR

STATION/POSITION TIME  TEMP    WIND        PRES    WAVE
                       AIR SEA DIR/SP/G            HT/PER
                 (UTC) (F)     (DEG/KT/KT) (MB)    (FT/S)
W MID LAKE BUOY  1550   57 52              1007.6F   2/ 3
DEVILS ISLAND    1600   63     180/ 14/ 19 1007.2R
PORT WING        1603          170/ 14/ 25 1006.1R
SAXON HARBOR     1600   67     180/ 14     1007.1
$$

LMZ867-665-643>646-211700-
LAKE MICHIGAN

STATION/POSITION TIME  TEMP    WIND        PRES    WAVE
                       AIR SEA DIR/SP/G            HT/PER
                 (UTC) (F)     (DEG/KT/KT) (MB)    (FT/S)
S GREEN BAY BUOY 1600   63 58  190/ 14/ 17 1014.5
N MID LAKE BUOY  1550   60 58  180/ 19/ 25 1015.9R   5/ 6
NORTHPORT PIER   1540   61     160/ 11/ 22 1014.9F
KEWAUNEE LAKESHO 1554   53     180/  9/ 11 1014.9F
SHEBOYGAN LAKESH 1600   54     180/ 19/ 20 1015.6F
PORT WASHINGTON  1540   58     200/  6/  8 1017.3S
ATWATER BUOY     1509   56 53  160/ 12/ 14 1016.6
MILWAUKEE LAKESH 1600   65     190/ 14/ 15   N/A
S MID LAKE BUOY  1550   62 60  180/ 19/ 21 1018.2R   4/ 5
KENOSHA   LAKESH 1600   60     180/ 12/ 17 1017.3
$$

TC  - TEMPERATURE IN CELSIUS
VSB - VISIBILITY IN STATUTE MILES
WCI - WIND CHILL INDEX
HX  - HEAT INDEX





USA.gov is the U.S. government's official web portal to all federal, state and local government web resources and services.